• Em Portugal
  • Lista de países
  • Para 7 dias
  • Temperatura da água
  • Mapas de satélite
  • Mapa do tempo
  • Widgets de tempo
  • user-avatar
    Iniciar Sessão

    Previsão horária em Pamporovo

    Hoje, 25 Setembro, Terça-feira

    Tempo Temperatura Precipitação Vento Pressão Humidade
    00:00 +8°C° 0.1 mm 3 m/s 628 mmHg 70%
    01:00 +7°C° 0.1 mm 3 m/s 628 mmHg 69%
    02:00 +5°C° 0 mm 5 m/s 628 mmHg 68%
    03:00 +5°C° 0.1 mm 4 m/s 629 mmHg 68%
    04:00 +4°C° 0.1 mm 4 m/s 629 mmHg 68%
    05:00 +3°C° 0.1 mm 4 m/s 629 mmHg 68%
    06:00 +3°C° 0.1 mm 4 m/s 630 mmHg 64%
    07:00 +3°C° 0.1 mm 4 m/s 630 mmHg 61%
    08:00 +3°C° 0 mm 4 m/s 630 mmHg 58%
    09:00 +4°C° 0 mm 4 m/s 631 mmHg 49%
    10:00 +6°C° 0 mm 4 m/s 632 mmHg 41%
    11:00 +7°C° 0 mm 4 m/s 632 mmHg 32%
    12:00 +8°C° 0 mm 4 m/s 632 mmHg 29%
    13:00 +10°C° 0 mm 4 m/s 633 mmHg 27%
    14:00 +11°C° 0 mm 4 m/s 633 mmHg 24%
    15:00 +10°C° 0 mm 4 m/s 633 mmHg 25%
    16:00 +8°C° 0 mm 4 m/s 632 mmHg 26%
    17:00 +7°C° 0 mm 4 m/s 632 mmHg 28%
    18:00 +5°C° 0 mm 4 m/s 632 mmHg 31%
    19:00 +3°C° 0 mm 3 m/s 631 mmHg 35%
    20:00 +1°C° 0 mm 3 m/s 631 mmHg 38%
    21:00 0°C° 0 mm 3 m/s 631 mmHg 40%
    22:00 0°C° 0 mm 3 m/s 631 mmHg 41%
    23:00 -1°C° 0 mm 3 m/s 632 mmHg 43%

    Amanhã, 26 Setembro, Quarta-feira

    Tempo Temperatura Precipitação Vento Pressão Humidade
    00:00 -1°C° 0 mm 3 m/s 632 mmHg 44%
    01:00 -2°C° 0 mm 3 m/s 632 mmHg 46%
    02:00 -2°C° 0 mm 3 m/s 632 mmHg 47%
    03:00 -2°C° 0 mm 3 m/s 632 mmHg 49%
    04:00 -4°C° 0 mm 3 m/s 632 mmHg 51%
    05:00 -4°C° 0 mm 3 m/s 632 mmHg 53%
    06:00 -2°C° 0 mm 3 m/s 632 mmHg 52%
    07:00 -2°C° 0 mm 4 m/s 633 mmHg 50%
    08:00 -1°C° 0 mm 4 m/s 634 mmHg 49%
    09:00 +1°C° 0 mm 5 m/s 634 mmHg 44%
    10:00 +2°C° 0 mm 5 m/s 635 mmHg 40%
    11:00 +3°C° 0 mm 6 m/s 635 mmHg 35%
    12:00 +4°C° 0 mm 6 m/s 635 mmHg 34%
    13:00 +4°C° 0 mm 7 m/s 635 mmHg 33%
    14:00 +5°C° 0 mm 7 m/s 635 mmHg 32%
    15:00 +4°C° 0 mm 7 m/s 635 mmHg 33%
    16:00 +4°C° 0 mm 7 m/s 634 mmHg 35%
    17:00 +3°C° 0 mm 7 m/s 634 mmHg 37%
    18:00 +2°C° 0 mm 6 m/s 634 mmHg 42%
    19:00 0°C° 0 mm 5 m/s 633 mmHg 46%
    20:00 -2°C° 0 mm 4 m/s 633 mmHg 51%
    21:00 -2°C° 0 mm 4 m/s 633 mmHg 54%
    22:00 -3°C° 0 mm 4 m/s 633 mmHg 56%
    23:00 -3°C° 0 mm 4 m/s 633 mmHg 58%

    Depois de amanhã, 27 Setembro, Quinta-feira

    Tempo Temperatura Precipitação Vento Pressão Humidade
    00:00 -4°C° 0 mm 4 m/s 633 mmHg 59%
    01:00 -4°C° 0 mm 4 m/s 633 mmHg 60%
    02:00 -5°C° 0 mm 4 m/s 632 mmHg 62%
    03:00 -5°C° 0 mm 4 m/s 632 mmHg 62%
    04:00 -5°C° 0 mm 4 m/s 632 mmHg 62%
    05:00 -5°C° 0 mm 4 m/s 632 mmHg 62%
    06:00 -4°C° 0 mm 4 m/s 632 mmHg 56%
    07:00 -3°C° 0 mm 4 m/s 632 mmHg 50%
    08:00 -1°C° 0 mm 5 m/s 633 mmHg 44%
    09:00 +1°C° 0 mm 5 m/s 633 mmHg 38%
    10:00 +2°C° 0 mm 5 m/s 634 mmHg 32%
    11:00 +5°C° 0 mm 5 m/s 634 mmHg 26%
    12:00 +6°C° 0 mm 5 m/s 634 mmHg 25%
    13:00 +7°C° 0 mm 4 m/s 634 mmHg 23%
    14:00 +8°C° 0 mm 4 m/s 634 mmHg 21%
    15:00 +8°C° 0 mm 4 m/s 634 mmHg 23%
    16:00 +7°C° 0 mm 4 m/s 633 mmHg 24%
    17:00 +8°C° 0 mm 3 m/s 633 mmHg 26%
    18:00 +4°C° 0 mm 3 m/s 632 mmHg 30%
    19:00 +2°C° 0 mm 3 m/s 631 mmHg 35%
    20:00 0°C° 0 mm 3 m/s 631 mmHg 40%
    21:00 -1°C° 0 mm 3 m/s 631 mmHg 41%
    22:00 -1°C° 0 mm 2 m/s 631 mmHg 43%
    23:00 -1°C° 0 mm 2 m/s 630 mmHg 44%

    28 Setembro, Sexta-feira

    Tempo Temperatura Precipitação Vento Pressão Humidade
    00:00 -2°C° 0 mm 2 m/s 630 mmHg 45%
    01:00 -2°C° 0 mm 2 m/s 630 mmHg 46%
    02:00 -2°C° 0 mm 2 m/s 629 mmHg 46%
    03:00 -2°C° 0 mm 2 m/s 629 mmHg 46%
    04:00 -2°C° 0 mm 2 m/s 629 mmHg 46%
    05:00 -3°C° 0 mm 2 m/s 628 mmHg 45%
    06:00 -1°C° 0 mm 2 m/s 629 mmHg 41%
    07:00 +2°C° 0 mm 2 m/s 629 mmHg 37%
    08:00 +4°C° 0 mm 2 m/s 630 mmHg 33%
    09:00 +6°C° 0 mm 2 m/s 631 mmHg 29%
    10:00 +8°C° 0 mm 2 m/s 631 mmHg 25%
    11:00 +12°C° 0 mm 2 m/s 632 mmHg 22%
    12:00 +12°C° 0 mm 2 m/s 632 mmHg 21%
    13:00 +13°C° 0 mm 2 m/s 631 mmHg 20%
    14:00 +14°C° 0 mm 2 m/s 631 mmHg 19%
    15:00 +13°C° 0 mm 2 m/s 630 mmHg 22%
    16:00 +13°C° 0 mm 2 m/s 630 mmHg 25%
    17:00 +12°C° 0 mm 2 m/s 629 mmHg 28%
    18:00 +9°C° 0 mm 2 m/s 628 mmHg 32%
    19:00 +7°C° 0 mm 2 m/s 628 mmHg 35%
    20:00 +4°C° 0 mm 2 m/s 627 mmHg 39%
    21:00 +4°C° 0 mm 2 m/s 627 mmHg 40%
    22:00 +5°C° 0 mm 1 m/s 627 mmHg 41%
    23:00 +5°C° 0 mm 1 m/s 627 mmHg 41%

    29 Setembro, Sábado

    Tempo Temperatura Precipitação Vento Pressão Humidade
    00:00 +5°C° 0 mm 1 m/s 626 mmHg 43%
    01:00 +4°C° 0 mm 1 m/s 626 mmHg 44%
    02:00 +3°C° 0 mm 2 m/s 626 mmHg 45%
    03:00 +3°C° 0 mm 2 m/s 625 mmHg 45%
    04:00 +3°C° 0 mm 2 m/s 625 mmHg 44%
    05:00 +3°C° 0 mm 2 m/s 625 mmHg 44%
    06:00 +5°C° 0 mm 1 m/s 626 mmHg 42%
    07:00 +7°C° 0 mm 1 m/s 626 mmHg 40%
    08:00 +8°C° 0 mm 1 m/s 627 mmHg 38%
    09:00 +11°C° 0 mm 1 m/s 627 mmHg 35%
    10:00 +13°C° 0 mm 1 m/s 628 mmHg 31%
    11:00 +15°C° 0 mm 1 m/s 629 mmHg 28%
    12:00 +15°C° 0 mm 2 m/s 629 mmHg 28%
    13:00 +16°C° 0 mm 2 m/s 628 mmHg 28%
    14:00 +16°C° 0 mm 2 m/s 628 mmHg 28%
    15:00 +16°C° 0 mm 2 m/s 628 mmHg 30%
    16:00 +15°C° 0 mm 2 m/s 628 mmHg 33%
    17:00 +14°C° 0 mm 1 m/s 627 mmHg 35%
    18:00 +13°C° 0 mm 1 m/s 627 mmHg 37%
    19:00 +11°C° 0 mm 1 m/s 627 mmHg 40%
    20:00 +9°C° 0 mm 1 m/s 626 mmHg 42%
    21:00 +9°C° 0 mm 1 m/s 626 mmHg 41%
    22:00 +9°C° 0 mm 1 m/s 627 mmHg 41%
    23:00 +9°C° 0 mm 1 m/s 627 mmHg 40%

    30 Setembro, Domingo

    Tempo Temperatura Precipitação Vento Pressão Humidade
    00:00 +8°C° 0 mm 1 m/s 627 mmHg 40%
    01:00 +8°C° 0 mm 1 m/s 627 mmHg 41%
    02:00 +8°C° 0 mm 1 m/s 627 mmHg 41%
    03:00 +6°C° 0 mm 2 m/s 627 mmHg 45%
    04:00 +6°C° 0 mm 2 m/s 626 mmHg 49%
    05:00 +5°C° 0 mm 2 m/s 626 mmHg 53%
    06:00 +6°C° 0.1 mm 2 m/s 627 mmHg 56%
    07:00 +6°C° 0.1 mm 2 m/s 627 mmHg 60%
    08:00 +7°C° 0.1 mm 2 m/s 628 mmHg 64%
    09:00 +8°C° 0.1 mm 3 m/s 628 mmHg 64%
    10:00 +8°C° 0.1 mm 3 m/s 628 mmHg 64%
    11:00 +9°C° 0.1 mm 3 m/s 629 mmHg 64%
    12:00 +10°C° 0.1 mm 3 m/s 629 mmHg 62%
    13:00 +11°C° 0.1 mm 3 m/s 629 mmHg 60%
    14:00 +11°C° 0.1 mm 4 m/s 629 mmHg 58%
    15:00 +11°C° 0.1 mm 4 m/s 628 mmHg 61%
    16:00 +10°C° 0.1 mm 4 m/s 628 mmHg 64%
    17:00 +8°C° 0.1 mm 4 m/s 628 mmHg 68%
    18:00 +9°C° 0.1 mm 3 m/s 628 mmHg 73%
    19:00 +8°C° 0.1 mm 3 m/s 627 mmHg 77%
    20:00 +7°C° 0.1 mm 3 m/s 627 mmHg 82%
    21:00 +7°C° 0.1 mm 3 m/s 627 mmHg 83%
    22:00 +5°C° 0.1 mm 3 m/s 627 mmHg 85%
    23:00 +6°C° 0.1 mm 2 m/s 627 mmHg 87%
    Mostrar mais